Theta_e
338 340 340 336 336 335 335 334 335 335 334 331 330 330 330 331 329 328 328 326 323 322 320 317 317 314 313 310 309 308 308 308 309 309 310 309 310 310 308 310 312 313 314 316 320 325 331 333 334 331 327 327 327 325 325 325 325 325 324 323 323 327 325 323 321 320 318 318 319 319 319 320 320 321 321 322 321 321 321 322 323 323 324 324 325
337 338 337 338 336 334 334 334 334 333 330 329 327 329 330 329 329 328 327 326 324 323 321 321 319 317 316 314 312 310 309 308 309 309 309 310 310 310 308 308 310 313 314 314 315 320 325 329 332 333 333 327 327 328 326 326 325 325 325 324 324 326 325 323 322 321 319 318 318 319 318 319 319 319 320 321 321 320 321 321 321 321 322 323 322
334 333 334 331 331 332 332 333 332 329 328 327 326 327 327 328 328 327 326 325 324 321 321 321 321 318 315 314 313 312 312 312 312 311 310 310 310 310 312 307 307 309 312 314 313 316 319 324 327 331 331 330 328 327 327 327 325 325 325 325 324 325 325 324 323 321 320 320 318 319 318 318 318 318 319 320 320 319 319 320 320 320 320 322 321
326 327 327 326 325 324 323 323 322 323 323 323 321 320 321 320 321 321 321 322 321 319 318 319 321 319 317 315 314 315 315 315 314 313 312 311 310 309 309 311 309 308 310 312 313 314 316 319 323 325 329 330 330 329 328 328 327 325 324 325 326 325 326 326 324 322 321 320 319 318 318 318 318 318 318 318 319 319 318 319 319 319 319 319 320
323 323 323 323 322 321 320 320 321 322 320 319 319 319 318 318 316 316 317 318 320 319 317 318 319 319 318 316 316 316 315 316 316 315 313 311 310 309 309 310 310 309 309 309 312 312 314 316 319 322 325 327 329 330 330 329 328 328 327 327 327 328 325 326 325 323 322 322 320 319 318 318 318 318 318 318 318 318 319 318 318 318 319 319 319
320 320 321 320 319 318 318 318 319 319 318 318 316 316 315 314 313 317 314 316 317 316 317 318 320 320 320 317 317 317 316 316 316 315 313 311 310 309 308 308 308 309 311 310 309 311 313 315 316 319 322 323 325 327 328 329 329 327 327 326 327 329 330 329 327 324 324 323 321 319 318 318 317 318 318 318 317 318 319 318 318 318 318 318 318
317 317 317 317 316 315 315 316 318 318 318 318 317 316 316 314 314 314 314 314 313 313 311 313 313 316 318 317 317 317 316 315 315 314 312 311 309 309 309 308 308 308 310 308 308 308 309 312 315 317 319 321 322 323 325 326 327 328 327 327 328 328 328 326 326 326 325 323 321 320 319 318 319 317 317 317 317 317 317 318 318 317 317 317 317
315 316 314 314 314 313 314 316 316 316 315 315 316 315 316 314 312 313 314 313 312 311 309 309 311 314 316 316 316 315 314 314 314 313 312 310 309 309 308 307 308 307 306 306 308 308 306 308 311 313 315 316 319 321 322 323 324 325 326 326 327 328 329 326 326 326 324 323 321 320 320 320 319 318 317 317 317 317 316 317 317 317 317 317 317
309 310 311 311 311 311 312 312 313 313 312 312 312 312 313 312 309 308 310 310 308 307 307 305 306 308 312 313 313 312 312 312 311 311 310 309 309 308 307 307 307 304 307 307 307 307 307 306 308 309 309 311 314 316 318 321 322 322 323 323 324 325 326 328 327 325 324 323 322 322 319 318 317 318 318 317 317 316 316 316 316 317 316 316 316
307 307 307 308 309 309 308 309 309 309 309 309 308 308 309 310 308 307 307 307 304 303 303 303 302 304 306 309 311 310 310 310 309 306 307 307 307 307 306 305 306 306 306 307 307 307 308 308 308 307 307 308 312 313 314 316 317 319 321 321 321 322 322 323 326 326 325 324 321 320 319 319 318 318 317 317 317 316 316 316 316 316 316 316 316
305 305 304 305 306 306 305 306 307 307 307 305 304 305 306 306 307 306 304 303 303 302 300 300 301 303 305 307 309 309 309 308 306 306 305 305 305 304 306 306 305 305 305 306 305 306 307 307 306 307 307 309 310 311 313 314 314 315 316 317 318 320 321 321 323 325 327 326 322 321 320 320 319 319 318 317 317 316 316 316 315 315 316 316 316
303 304 304 304 304 305 305 306 305 305 304 304 303 303 304 306 306 307 307 306 303 303 304 303 304 306 307 308 310 309 307 306 306 305 304 306 306 305 305 305 304 305 305 305 305 305 305 306 306 306 307 308 309 308 309 310 311 314 314 315 316 317 319 319 320 322 324 326 327 322 321 320 320 319 318 318 318 317 316 316 316 315 316 316 316
300 301 302 301 302 302 303 303 304 303 302 302 303 304 304 306 306 305 305 304 302 303 303 304 305 305 307 308 309 309 307 305 303 304 306 307 306 305 303 304 305 304 304 304 304 305 305 305 305 305 306 307 306 307 308 307 307 310 312 313 314 315 316 318 319 319 320 323 325 327 323 321 320 320 319 319 320 319 317 317 316 316 316 316 316
296 297 298 299 299 299 300 300 301 301 301 301 301 301 302 303 304 305 305 303 301 302 302 304 302 300 301 303 306 308 308 304 303 305 306 307 305 304 304 304 304 303 303 303 304 304 304 304 304 304 305 305 305 306 306 306 307 308 310 311 312 314 314 315 315 317 317 318 321 324 325 326 324 321 321 320 319 318 318 317 317 317 317 317 317
294 294 295 295 295 296 296 297 298 299 298 298 299 299 300 300 301 301 302 302 301 301 301 301 299 300 303 302 301 300 304 302 304 303 304 304 303 305 305 304 303 304 303 303 303 303 303 304 303 303 304 304 304 304 304 302 303 302 304 306 308 311 313 313 314 314 315 315 317 319 321 324 325 323 323 322 321 320 319 318 318 318 317 317 317
293 293 293 294 294 293 294 294 294 295 295 294 295 295 296 298 298 299 301 299 299 299 301 300 299 299 297 297 298 299 297 300 297 301 304 303 304 304 303 302 304 304 303 302 302 303 303 304 303 303 303 303 303 303 303 304 302 299 298 299 301 306 309 312 313 314 314 314 314 316 317 319 321 324 325 323 323 321 320 320 320 319 318 318 318
292 292 292 293 293 293 293 293 293 293 294 293 292 293 294 295 296 296 297 297 295 297 298 299 299 300 297 296 297 296 295 295 296 299 302 301 302 302 302 302 302 301 301 301 302 302 302 302 303 303 303 303 303 303 303 303 303 303 301 296 297 301 304 308 310 311 312 313 313 313 314 315 316 318 322 323 324 324 323 321 321 320 319 318 318
291 291 292 291 292 292 293 292 292 292 293 292 292 292 292 293 293 294 294 296 293 292 292 297 296 297 299 298 297 293 292 294 295 292 298 300 301 301 301 301 301 300 299 300 300 301 301 301 302 302 302 303 302 302 302 302 302 303 302 303 303 303 304 305 309 311 312 313 313 314 314 314 314 315 316 318 321 323 324 323 323 320 319 319 319
290 290 291 291 291 291 291 291 291 291 291 291 291 291 292 292 293 292 292 293 293 290 290 291 292 293 295 296 296 296 296 294 290 291 288 294 296 297 298 300 299 297 297 299 299 299 299 299 299 300 301 301 302 302 302 302 301 300 300 300 303 305 305 305 306 308 310 311 312 312 313 313 313 314 315 316 318 319 320 321 321 320 320 320 319
289 290 290 290 290 290 291 290 290 290 289 289 289 290 291 291 291 292 292 291 292 290 289 290 288 289 292 292 292 292 295 296 295 290 288 285 287 293 296 296 295 295 297 296 295 297 298 298 298 299 299 300 300 301 301 301 301 302 301 301 302 304 305 305 306 306 307 309 312 312 313 313 313 314 314 314 315 316 318 320 320 321 320 320 319
289 289 289 289 289 289 290 289 289 288 288 289 288 288 288 288 289 289 290 289 290 290 289 289 289 288 289 289 290 290 291 292 292 291 287 286 286 287 287 291 292 293 294 293 295 295 295 296 297 298 299 300 300 300 300 301 300 301 301 301 301 303 304 304 303 303 303 304 306 308 311 313 314 314 314 314 314 315 316 317 318 321 321 320 320
288 288 289 288 289 289 288 288 287 287 286 286 286 286 287 287 288 288 288 288 289 289 288 288 289 289 289 289 287 287 288 288 288 288 288 289 285 285 287 286 285 288 291 292 292 292 293 294 296 297 298 299 300 300 300 300 300 301 300 298 298 299 300 300 302 303 303 303 304 305 308 309 311 313 314 315 314 315 315 315 316 318 321 322 321
288 288 288 288 288 288 288 288 288 287 287 287 287 287 287 287 287 288 287 287 287 288 288 287 288 288 288 287 286 286 286 285 285 286 286 285 285 285 286 287 286 285 289 293 291 291 291 294 294 295 297 297 298 299 299 300 297 298 296 296 297 297 299 301 301 302 302 303 304 305 306 307 309 310 311 313 314 315 315 315 315 316 317 321 322
287 287 287 288 288 287 288 287 287 287 287 287 287 287 287 287 287 287 287 287 287 287 287 286 286 286 287 287 286 287 287 286 286 286 286 285 285 284 284 286 286 287 289 289 291 290 292 291 292 294 295 295 296 297 298 299 299 295 294 295 296 297 299 300 300 300 300 301 301 302 303 303 304 305 308 311 313 313 314 315 314 315 316 317 319
286 285 286 286 287 286 286 286 286 286 286 286 286 286 287 286 286 286 286 286 285 286 285 285 286 285 285 286 286 287 286 287 287 286 286 286 285 283 284 286 283 284 287 288 287 290 291 291 293 295 293 294 296 297 297 298 298 295 292 294 296 296 297 297 298 298 299 300 301 302 302 303 304 305 306 307 309 312 314 315 314 315 315 315 315
285 285 285 286 286 286 286 285 285 285 285 285 285 286 286 285 285 285 285 285 285 285 285 285 285 285 285 285 285 285 286 287 286 286 285 285 283 283 282 283 284 283 285 286 288 286 289 292 293 294 294 295 295 296 297 296 296 294 291 293 295 297 297 297 298 299 300 300 301 301 301 301 302 303 304 306 308 308 311 313 314 315 316 316 316
284 284 285 285 285 285 285 284 284 284 284 284 285 285 285 285 285 284 284 285 284 285 284 284 284 284 284 284 284 285 285 285 285 285 285 285 284 283 282 280 281 283 282 285 285 286 286 289 291 291 292 293 295 296 296 295 293 293 291 292 292 293 297 297 299 300 299 299 299 300 300 300 301 302 302 304 305 306 308 309 311 314 315 316 315
284 284 284 284 284 284 284 283 283 283 283 283 283 283 283 283 283 283 283 284 283 283 283 284 283 283 284 284 283 284 284 284 285 284 284 285 285 284 284 282 280 278 282 281 283 284 288 286 289 290 291 291 292 294 293 292 293 292 290 291 292 292 294 295 297 298 298 298 299 299 300 300 301 301 302 302 303 304 305 306 307 307 307 307 308
284 284 283 283 283 283 283 283 283 283 283 283 282 283 283 283 282 282 282 283 282 283 283 282 282 283 283 283 282 283 283 284 283 284 284 284 284 284 284 282 282 279 278 278 280 281 285 287 284 287 290 292 292 293 291 290 290 290 291 291 292 292 292 294 295 296 297 298 298 298 298 299 300 300 301 301 302 302 303 304 305 305 306 306 307
283 283 283 283 283 282 282 282 282 282 282 282 282 282 282 282 282 282 282 282 282 282 282 282 282 282 282 282 282 282 283 282 282 283 283 283 283 283 283 283 283 280 279 278 278 282 282 286 286 285 288 289 289 288 289 289 290 290 290 290 290 291 292 293 294 294 296 297 296 296 297 297 298 298 299 300 301 302 303 303 304 305 306 306 307
282 283 282 282 282 282 282 281 281 281 281 281 281 281 281 281 281 281 281 281 281 281 281 281 281 281 281 280 281 281 282 281 281 282 282 282 282 282 282 283 282 282 280 279 277 281 285 282 285 287 286 287 288 288 288 289 289 288 288 289 290 290 291 291 291 293 294 294 294 295 296 297 297 298 298 299 300 301 302 302 302 303 304 306 307
282 282 281 281 281 281 281 280 280 280 280 280 280 280 280 280 280 280 280 279 279 279 280 281 281 280 280 280 280 280 281 281 281 281 281 281 282 281 281 281 281 281 281 279 278 278 283 283 283 285 286 286 287 285 286 287 288 288 288 289 289 289 289 289 291 291 292 293 294 295 295 296 296 296 297 298 299 300 301 301 302 302 303 304 306
281 281 280 280 280 280 279 279 279 279 279 279 279 279 279 278 278 278 278 278 278 278 279 278 279 279 279 279 279 280 280 279 280 280 280 280 281 281 281 281 280 281 280 279 277 278 280 283 283 283 284 285 284 285 284 285 285 287 287 288 288 288 288 288 288 289 291 292 292 293 294 295 296 296 297 297 298 299 299 300 301 302 302 303 303
280 279 279 279 279 279 278 278 278 278 278 278 277 277 277 277 277 278 277 277 277 277 277 277 278 278 278 278 278 278 278 278 278 278 278 278 279 279 279 280 279 279 280 279 278 277 276 280 280 282 282 284 282 285 284 283 284 285 285 286 287 287 287 288 288 288 290 290 291 292 293 294 295 296 296 297 297 298 299 299 300 300 301 302 302
279 278 278 278 277 277 277 277 277 277 277 276 276 276 276 276 276 276 277 276 276 276 276 277 277 277 277 277 277 277 277 276 277 277 277 277 278 277 277 278 277 278 279 279 277 276 276 277 279 279 280 282 281 282 283 284 284 284 284 284 285 286 287 287 287 288 289 290 291 292 293 293 294 295 295 296 296 297 298 298 298 299 299 300 300
277 277 277 276 276 276 276 276 276 276 275 275 275 276 275 275 275 275 276 276 276 276 276 276 276 276 276 275 276 276 276 275 276 276 277 277 276 276 276 277 277 277 278 278 278 277 276 275 277 278 279 279 280 282 283 283 283 283 284 284 285 285 286 287 287 288 288 290 290 291 291 292 292 293 294 294 295 295 296 297 298 298 298 299 300
276 276 276 276 275 276 275 275 275 275 275 274 274 275 275 275 275 275 275 276 276 276 276 276 276 276 275 275 275 275 275 275 275 275 276 275 276 276 275 276 276 277 277 277 277 277 276 275 276 278 279 279 280 280 281 280 281 281 282 282 283 283 284 285 286 287 288 289 289 290 290 291 291 292 293 293 294 295 295 296 296 297 298 298 298
275 275 275 275 275 274 274 274 274 274 274 274 274 274 274 274 275 275 275 276 276 276 276 276 276 276 275 275 275 275 275 274 274 275 275 275 275 275 275 275 275 276 275 275 276 276 275 275 275 275 277 277 277 278 280 280 279 279 280 281 282 283 283 283 285 286 287 288 288 288 289 290 291 292 293 293 293 294 294 294 295 295 296 296 297
274 274 274 273 274 273 273 273 273 273 273 273 273 273 273 274 275 275 275 275 275 275 275 275 276 276 275 275 275 275 274 274 274 274 274 274 274 274 274 274 274 274 274 274 275 274 274 274 274 275 275 276 277 276 278 279 279 279 278 279 279 282 283 283 282 284 286 286 287 288 288 288 289 289 289 290 291 291 292 293 294 294 294 295 296
273 273 273 272 273 273 272 272 272 272 272 272 273 273 273 274 275 275 275 274 275 275 275 275 275 275 275 275 275 275 275 275 274 274 274 273 274 273 274 274 274 273 273 273 272 272 272 272 272 272 273 273 274 276 277 277 276 277 278 277 275 276 277 280 281 282 284 285 285 286 287 288 288 289 290 291 292 292 292 292 292 293 292 293 294
272 272 271 271 271 272 272 271 271 272 271 272 272 272 273 274 275 274 275 274 274 274 274 275 275 275 275 275 275 275 275 274 275 275 275 274 273 272 272 273 273 272 271 271 271 271 271 271 271 272 272 272 273 273 273 273 273 273 275 275 274 276 277 278 279 281 281 282 283 284 285 286 286 286 287 288 289 290 290 292 292 291 292 293 293
271 271 270 271 271 271 271 271 271 271 271 271 270 271 274 274 274 275 274 274 274 274 274 274 274 275 275 275 274 274 274 273 273 274 274 274 275 274 273 273 272 271 271 270 270 270 270 270 270 270 270 270 271 272 272 273 274 275 274 274 273 275 276 275 276 278 280 281 281 281 283 286 286 286 287 286 288 289 289 290 290 291 291 292 293
269 269 269 270 270 270 270 270 270 270 270 270 270 273 274 275 275 274 274 274 274 274 274 274 273 274 274 273 273 273 273 273 273 273 274 274 274 275 275 275 274 272 271 270 270 271 270 269 270 270 270 270 271 272 272 273 274 273 273 274 273 273 272 271 270 275 279 279 277 276 277 281 283 283 285 286 287 288 289 289 290 291 291 291 291
269 269 269 269 269 269 269 269 269 270 270 270 271 272 273 275 275 275 274 274 273 273 274 273 273 272 272 272 272 272 272 272 272 272 273 273 274 274 274 274 274 275 275 273 271 270 270 270 270 270 270 270 271 272 272 273 273 273 273 273 273 273 272 272 273 272 277 280 277 276 276 279 280 280 281 283 286 287 288 289 290 290 291 291 291
268 268 269 268 268 269 268 268 268 269 269 269 270 272 273 274 275 275 274 274 273 273 273 272 272 271 271 271 271 272 272 272 272 272 272 272 274 274 274 274 274 274 275 276 276 274 273 272 271 271 272 272 272 273 274 274 275 273 273 273 273 273 273 273 273 274 276 279 277 276 275 278 280 279 279 281 282 284 285 287 289 290 290 291 291
268 268 267 267 267 267 267 267 267 268 268 268 270 272 273 274 275 275 274 274 273 272 272 272 271 271 271 271 270 270 272 272 272 272 273 272 272 272 272 272 272 274 276 276 276 277 276 274 273 272 274 275 273 274 275 276 274 273 273 273 274 274 274 274 275 276 277 279 276 275 274 276 279 279 278 280 283 283 284 286 288 289 290 290 291
268 267 267 266 266 265 266 266 266 266 267 268 270 271 272 273 275 275 273 272 271 271 271 272 271 271 271 271 271 271 271 272 272 273 272 272 272 272 272 272 272 273 274 274 275 275 275 275 275 275 275 276 275 276 276 277 276 276 275 274 275 275 276 277 277 277 277 278 278 276 272 275 278 277 278 280 282 283 284 286 287 287 288 289 290
267 266 266 266 265 265 265 264 264 265 267 268 269 270 272 273 274 273 272 271 271 271 270 271 271 272 272 272 271 271 271 272 274 275 275 274 273 272 272 272 273 274 274 276 278 278 277 276 276 276 276 276 278 277 277 276 276 276 277 277 277 276 275 274 273 274 274 277 278 276 273 274 278 276 276 278 280 280 283 284 286 287 288 289 289
267 266 265 265 265 264 264 263 263 264 265 266 268 270 272 273 273 271 271 271 270 270 270 271 271 272 272 272 272 272 273 273 275 276 277 276 274 273 273 273 274 274 274 276 278 280 279 280 280 280 281 282 281 281 282 282 280 280 278 275 274 275 273 271 272 272 273 275 276 277 275 273 276 276 276 277 278 278 280 282 284 287 288 288 289
266 265 264 264 264 263 263 262 263 262 263 266 268 270 271 272 272 271 271 270 270 270 270 271 272 272 273 274 274 273 273 273 275 277 278 277 275 274 274 273 273 273 274 276 277 277 280 280 280 280 280 280 280 281 281 281 281 280 276 273 275 275 272 272 270 272 273 274 275 277 274 273 275 277 276 277 278 279 280 282 283 284 286 287 288
264 264 264 264 263 263 263 262 263 263 263 264 267 269 270 271 272 271 271 270 270 270 270 271 272 272 273 274 275 275 274 275 278 278 279 277 275 275 275 274 273 273 274 276 276 275 276 276 277 277 277 278 278 278 278 280 280 280 278 276 276 274 272 272 272 272 270 272 275 278 273 273 274 275 275 273 272 275 278 278 280 283 285 286 286
Wind_Speed
5 5 4 4 3 3 2 3 4 3 3 2 1 2 2 2 2 2 1 1 1 1 1 1 1 1 2 1 2 2 2 2 3 2 2 3 3 2 2 3 5 6 8 9 10 11 14 14 15 10 6 8 8 6 4 5 7 5 4 2 2 5 6 4 3 1 0 1 1 2 3 5 6 7 7 7 6 5 6 7 7 7 7 6 8
4 3 2 2 0 1 2 1 2 1 1 1 1 1 2 2 1 1 1 1 1 1 1 0 1 1 2 2 2 2 2 2 3 3 3 3 3 1 4 2 3 5 6 7 8 9 10 12 14 15 14 8 6 10 6 7 6 8 8 6 6 7 5 5 5 4 2 2 2 2 1 3 4 5 6 7 6 6 6 6 6 7 9 7 5
5 3 5 4 3 2 2 2 3 3 2 2 3 3 3 2 3 2 1 1 1 1 2 2 1 1 1 3 3 3 3 2 3 3 3 3 3 3 1 3 2 4 4 5 6 7 8 10 11 13 13 13 11 9 10 10 8 7 8 12 7 7 7 6 7 7 6 5 4 3 2 3 2 4 5 6 7 5 6 7 7 7 8 9 7
8 7 7 6 6 6 6 5 5 4 4 4 4 4 4 5 6 6 5 4 3 2 3 4 3 3 3 3 3 4 4 4 4 4 4 4 4 4 4 3 2 1 3 4 6 6 7 7 8 10 11 12 12 11 11 11 11 8 5 10 10 10 9 10 10 9 7 7 5 3 4 2 3 3 4 5 7 7 5 6 7 7 7 7 7
7 8 7 7 6 7 6 5 5 5 5 5 6 6 5 4 4 4 4 3 3 2 1 2 3 3 3 3 4 4 3 4 5 4 5 4 4 4 4 4 5 2 5 2 4 4 5 5 6 7 8 10 12 12 12 11 11 12 10 11 12 10 9 10 10 12 9 8 6 4 4 3 4 4 4 6 7 8 8 7 7 6 7 8 7
7 8 8 8 8 7 6 6 6 6 5 5 5 5 5 4 3 2 4 4 5 5 5 4 4 3 3 3 4 4 4 4 3 4 4 4 4 4 4 5 4 5 4 3 4 3 3 4 5 6 6 7 8 10 12 12 11 11 12 12 14 15 16 15 8 12 10 9 6 5 3 4 3 6 6 7 7 8 8 8 8 8 6 7 8
10 8 8 8 8 8 9 8 7 7 7 5 5 5 5 4 3 4 3 3 3 3 3 4 5 5 4 4 4 4 4 4 3 3 3 3 3 3 3 4 4 5 5 5 2 4 2 5 7 7 7 7 7 8 9 10 12 12 11 11 12 14 14 9 7 11 8 4 8 6 5 5 9 6 7 8 9 9 9 9 9 9 8 8 9
10 10 9 9 9 9 8 7 7 7 6 6 7 7 5 4 5 3 3 3 3 4 3 3 3 5 5 4 4 4 5 5 4 4 3 3 3 2 3 4 4 4 6 5 6 4 1 4 6 8 8 9 10 10 10 10 10 10 12 12 13 13 14 6 9 8 7 10 9 7 9 7 8 9 9 10 10 10 11 11 11 9 10 10 11
10 9 8 8 8 8 7 8 7 5 5 6 7 6 5 5 5 4 4 3 3 2 2 3 4 5 5 4 3 3 4 4 4 4 3 3 3 3 3 3 3 3 4 4 5 6 1 0 4 6 6 7 9 10 11 11 11 11 11 11 13 14 15 15 15 9 10 10 13 11 4 5 3 6 10 10 11 11 11 11 12 12 10 9 11
9 8 9 8 8 7 8 8 6 6 8 9 8 6 6 5 6 5 4 4 3 4 4 2 2 3 4 5 4 3 3 3 3 3 3 4 4 4 4 4 4 4 3 4 4 4 5 3 3 7 7 6 7 9 10 11 12 12 12 13 13 14 15 16 15 11 12 12 9 8 8 7 6 8 9 10 10 11 11 11 12 12 11 11 11
9 9 7 7 7 7 7 6 5 6 8 8 7 7 7 7 6 5 4 4 4 3 3 3 3 3 3 4 4 4 3 2 2 2 2 3 4 4 3 3 3 3 4 4 4 4 5 5 5 6 5 3 7 9 10 11 12 12 13 14 15 15 15 15 15 15 15 15 10 11 10 9 11 12 11 11 11 11 10 10 11 12 12 12 11
10 9 9 8 8 8 8 9 9 8 9 10 9 8 7 5 6 5 4 4 6 5 5 4 3 2 3 4 3 3 3 2 1 1 2 3 4 3 3 3 3 4 4 4 4 4 4 5 5 5 5 5 6 8 10 11 11 13 14 14 14 15 15 16 16 16 16 15 15 13 11 11 13 13 12 12 12 11 11 11 11 10 11 11 11
10 10 9 9 9 8 9 10 9 10 10 10 9 9 8 6 4 6 7 6 7 7 8 5 4 5 4 3 3 2 2 1 2 3 4 4 4 3 3 3 4 4 4 3 4 4 4 5 5 5 5 5 6 6 7 9 10 13 14 15 15 15 15 16 17 17 16 16 16 16 15 15 17 16 13 14 18 17 11 13 11 11 12 12 11
10 10 10 10 9 9 9 9 9 9 9 9 10 9 10 10 7 5 6 7 8 9 9 7 5 7 8 6 2 2 2 3 3 6 9 6 3 2 3 4 4 4 3 4 4 4 4 5 5 6 6 6 6 6 6 6 7 7 11 13 15 16 16 16 17 17 17 18 18 17 16 17 16 16 15 16 16 12 15 15 15 14 14 14 14
11 10 9 10 10 10 9 8 9 8 8 9 9 10 9 10 10 7 5 7 7 8 10 10 6 7 4 4 4 6 2 4 5 12 10 4 2 4 4 3 4 4 4 5 5 6 5 5 5 6 6 6 6 6 6 7 7 7 10 12 14 16 16 17 17 17 17 17 18 19 18 18 18 17 19 19 19 17 15 15 17 16 15 16 15
11 10 10 10 10 9 8 9 9 9 8 9 10 11 10 10 10 10 7 7 7 8 9 10 8 8 6 5 5 4 6 2 11 10 2 2 7 7 4 5 6 7 6 6 7 8 8 6 6 6 6 6 6 6 6 6 8 8 10 11 12 14 15 17 17 17 17 18 17 18 19 19 20 19 16 18 22 21 18 16 19 17 16 17 15
11 11 10 10 10 9 9 8 9 9 8 9 9 10 9 9 10 9 10 7 8 7 8 9 11 9 6 5 3 3 5 8 12 5 3 8 5 4 4 5 6 6 6 7 8 8 8 8 7 7 7 7 7 6 7 7 7 7 7 9 11 11 13 15 17 17 18 18 18 18 18 19 20 21 20 20 19 19 19 18 20 19 19 17 15
10 11 10 9 10 9 9 9 9 8 8 8 8 9 10 10 9 8 9 9 7 7 7 7 8 9 9 7 4 4 7 9 8 6 9 6 3 5 5 6 5 6 8 8 8 7 7 8 8 9 9 8 7 7 7 7 6 6 6 7 9 10 12 14 15 16 17 18 18 18 19 19 19 20 22 22 21 21 21 19 18 19 18 18 18
10 10 10 10 9 9 9 9 8 8 8 8 8 9 8 8 8 8 8 8 8 8 8 7 5 8 7 6 5 4 4 6 6 9 10 5 4 7 7 4 6 9 9 7 8 8 7 8 9 9 10 9 8 8 8 8 9 8 9 12 15 14 14 14 15 16 17 17 18 18 18 19 20 20 21 21 22 22 21 20 19 16 19 18 18
9 10 10 9 9 9 9 9 9 8 8 8 8 8 7 7 7 7 7 7 8 7 7 7 7 6 7 7 6 5 4 3 4 5 8 11 11 6 3 7 10 8 6 7 9 8 9 9 9 10 9 9 9 9 8 8 8 8 8 8 12 14 14 15 14 15 16 17 18 18 19 19 20 20 21 21 22 22 21 21 20 20 21 20 20
9 9 10 9 9 8 8 9 8 8 7 7 8 8 8 8 8 8 8 7 6 6 6 6 6 6 6 6 6 6 6 4 4 6 7 10 11 9 11 8 6 6 6 8 6 7 9 10 9 10 9 8 8 8 8 8 8 8 9 10 12 15 16 16 16 15 16 17 18 19 19 20 20 20 20 21 22 22 22 21 21 23 23 22 21
8 9 9 9 9 9 8 9 9 8 7 7 6 7 7 7 7 7 7 7 6 6 6 5 5 5 5 5 6 6 5 5 5 7 7 6 10 13 11 14 13 6 5 7 6 8 9 8 8 9 8 7 8 8 8 8 7 6 8 10 13 14 15 15 15 15 15 16 16 17 19 20 20 20 20 21 21 21 21 21 22 23 23 24 23
6 6 8 7 7 8 7 7 6 6 6 7 7 6 6 6 5 6 7 7 6 5 5 6 5 5 6 5 5 5 5 6 7 7 7 8 10 11 11 11 12 15 5 3 7 8 7 6 8 8 7 7 8 8 7 8 9 7 8 8 10 12 13 14 14 15 16 16 17 17 18 18 19 20 20 20 20 21 21 22 22 22 23 23 26
5 6 7 7 6 6 6 6 7 7 7 6 6 6 5 5 5 5 5 6 6 5 5 6 7 4 5 5 4 4 5 5 6 6 7 8 9 11 11 12 12 10 9 8 6 7 5 6 7 7 6 7 8 8 8 7 7 6 6 10 10 12 13 14 14 14 15 15 16 17 17 18 19 19 20 20 20 21 21 21 22 22 23 23 23
6 6 7 8 6 6 7 6 6 6 6 6 6 6 5 5 5 5 5 5 5 5 5 5 5 5 4 4 4 4 4 4 5 6 6 7 8 11 10 9 12 14 11 10 8 4 6 6 5 5 5 7 7 8 8 7 7 6 7 8 10 12 12 13 14 15 15 15 16 16 16 17 18 18 19 20 20 21 21 22 21 22 23 23 24
5 6 5 5 5 5 5 5 5 5 6 5 5 5 5 4 4 5 5 4 4 4 4 5 4 4 4 4 4 4 4 4 5 5 6 7 8 9 11 10 10 13 11 9 10 10 3 4 5 5 5 6 7 7 6 7 7 7 9 9 11 11 10 13 16 17 17 17 17 17 17 17 17 18 18 19 20 20 21 22 22 22 22 23 23
4 4 4 4 4 4 5 5 5 5 5 5 4 4 4 3 3 4 3 4 4 4 3 4 4 5 5 4 5 4 4 4 5 5 5 5 7 8 9 13 13 10 11 9 10 10 11 8 5 6 5 5 6 5 3 4 6 9 12 12 12 14 11 15 17 18 18 18 19 19 19 18 18 18 19 19 19 20 20 21 22 23 22 23 23
3 3 2 2 2 2 3 4 4 4 4 4 4 3 3 3 3 3 3 2 3 3 3 3 4 5 4 4 4 4 4 5 5 5 5 5 6 6 7 8 10 15 12 12 10 10 8 8 6 5 7 6 6 5 3 6 7 11 12 9 10 11 14 16 17 18 19 19 19 19 19 19 19 19 20 19 19 20 20 20 21 22 22 22 22
3 2 2 2 3 3 3 4 4 4 4 4 4 4 3 2 3 3 3 3 3 3 3 3 4 4 4 4 4 5 5 5 5 5 6 6 6 6 6 7 8 10 13 15 13 12 7 6 9 8 7 6 4 4 8 10 12 11 10 10 10 10 12 15 18 19 19 20 19 19 19 20 20 20 20 20 20 21 21 21 21 21 22 22 23
2 1 2 2 2 3 3 3 3 3 3 3 3 3 3 2 2 2 2 3 3 3 3 3 4 4 4 4 5 5 5 5 5 6 6 6 7 6 7 7 7 9 11 13 16 10 11 9 7 9 7 8 10 11 10 10 10 12 12 12 11 11 14 16 18 19 20 21 19 19 20 20 21 21 21 21 21 21 22 22 22 22 22 23 23
2 2 2 2 2 2 2 2 2 2 2 2 3 3 3 3 3 2 3 4 4 4 3 4 4 4 5 5 5 5 5 6 6 6 6 6 6 7 8 8 8 9 10 11 14 13 6 10 12 9 11 12 10 11 10 10 11 12 13 13 12 12 12 13 15 18 19 20 20 19 20 20 21 21 21 21 22 22 22 22 22 23 23 23 23
2 2 2 2 2 2 2 2 2 2 3 3 3 4 4 4 4 4 4 5 5 5 4 4 3 4 5 6 6 5 6 6 7 6 6 7 7 8 8 8 9 9 10 11 13 19 13 11 13 13 11 13 12 13 13 11 10 12 11 11 12 14 11 11 12 15 18 19 20 21 21 21 21 21 22 22 23 23 23 23 23 23 24 24 23
1 1 2 1 2 2 2 2 3 3 4 5 4 4 4 4 4 4 5 5 5 4 4 5 4 5 5 6 6 6 7 7 7 7 7 8 8 8 8 8 9 9 9 11 14 17 17 11 11 12 11 12 14 11 14 13 12 11 11 12 12 12 12 12 12 14 15 18 19 20 20 21 21 21 21 21 22 23 23 23 23 23 22 23 23
1 1 1 1 2 3 2 3 4 4 4 4 4 4 4 4 4 3 4 5 5 5 4 5 5 5 5 6 7 7 7 7 8 8 8 8 8 8 8 8 9 9 9 10 13 14 19 16 13 12 12 11 14 11 12 15 15 13 14 12 11 12 11 12 12 11 14 16 18 19 21 22 22 22 21 21 22 22 23 23 22 22 22 22 23
2 1 2 2 2 3 2 3 3 3 3 3 3 3 3 4 4 4 4 4 5 5 5 6 6 6 6 6 7 7 6 8 8 8 8 8 7 8 10 9 10 10 10 10 12 14 16 17 15 15 12 11 12 14 14 13 15 14 15 14 12 11 10 12 12 12 15 16 19 19 20 21 22 23 22 22 22 22 22 22 22 22 22 22 22
2 2 2 2 2 2 2 2 2 3 3 3 3 3 3 4 4 5 4 4 4 5 5 6 6 6 7 7 7 7 8 8 8 8 7 7 8 8 9 9 9 10 10 10 11 12 14 17 16 14 14 14 12 13 12 12 14 15 13 14 14 13 13 12 13 13 13 17 18 20 21 21 22 23 24 23 22 22 22 22 22 22 22 22 21
2 1 1 1 1 1 1 2 3 3 3 3 3 3 3 3 4 4 5 5 5 5 5 5 6 6 7 7 8 8 8 8 9 8 8 10 9 9 9 9 9 10 9 10 11 12 13 16 17 15 14 14 12 13 13 13 14 14 14 15 14 15 15 14 12 12 17 21 22 22 21 21 21 22 23 23 22 22 21 21 22 22 21 21 21
1 1 1 1 1 2 1 2 3 3 3 3 3 4 4 4 4 5 4 5 5 5 6 5 6 6 6 7 7 8 8 9 9 9 9 11 10 10 11 11 10 10 11 11 11 12 13 14 15 17 14 13 14 12 13 13 14 15 14 14 14 14 14 13 11 10 9 9 9 10 11 13 15 17 18 19 21 22 22 22 21 22 20 19 19
1 1 0 0 1 1 2 2 3 3 3 3 3 4 4 4 4 5 5 5 6 5 5 6 6 6 7 7 7 8 8 9 9 10 10 11 10 12 11 11 11 11 11 11 11 12 13 14 14 13 14 13 12 14 12 13 14 13 14 14 14 11 12 13 15 12 12 13 15 17 16 17 19 17 20 23 24 24 24 23 22 22 20 18 19
2 1 0 0 1 1 1 2 3 3 3 3 3 3 4 4 5 5 5 6 6 6 6 6 6 7 7 8 7 8 8 8 9 11 12 12 11 12 11 10 11 11 11 11 11 11 12 13 13 13 12 14 13 12 12 13 12 11 10 12 15 16 15 14 14 15 13 13 13 12 12 14 15 17 19 21 23 24 24 22 22 21 19 19 20
1 1 0 1 1 1 2 2 3 3 3 3 2 3 5 6 6 6 6 7 7 8 7 7 7 7 7 7 7 7 9 13 17 16 15 14 12 11 11 10 11 11 11 10 10 11 11 11 12 11 12 12 12 13 13 12 13 14 13 13 14 15 15 15 15 14 14 15 14 14 12 12 12 12 12 12 11 13 13 14 14 16 17 19 19
2 1 0 1 1 2 2 3 3 3 2 2 3 7 8 6 7 6 7 7 7 8 9 9 8 8 8 8 8 12 14 15 15 16 16 16 16 13 12 11 11 11 11 11 11 11 11 12 12 12 13 12 12 13 13 13 13 14 14 13 14 14 13 14 15 12 11 13 14 14 12 11 11 12 11 12 11 11 10 10 9 10 10 13 15
2 1 1 2 2 1 2 3 4 3 3 2 6 9 9 10 8 7 7 7 7 8 8 9 9 9 8 8 9 10 11 12 11 13 16 17 16 17 17 17 15 12 12 12 12 11 11 12 12 12 12 14 13 13 13 13 12 13 13 12 13 13 12 14 16 12 7 12 14 15 16 14 14 14 13 13 12 12 11 11 13 13 15 17 19
2 2 2 2 2 2 2 3 4 4 4 4 8 9 10 10 10 8 7 7 7 7 8 8 8 8 9 9 8 8 8 9 11 13 14 15 16 17 17 17 17 18 17 14 13 13 13 13 14 13 13 14 14 13 13 13 13 13 12 13 13 13 14 14 14 15 13 14 17 17 18 12 12 15 16 14 14 13 12 15 20 20 19 19 20
2 3 3 2 3 2 3 3 4 4 4 5 8 10 10 11 11 10 7 7 7 7 8 8 8 8 8 9 9 8 8 12 12 11 11 12 15 17 17 18 18 18 19 21 21 17 15 16 16 17 15 15 16 14 13 15 15 16 15 14 14 14 14 15 14 15 13 13 16 17 19 16 13 14 16 14 14 14 15 17 21 22 23 23 22
3 3 3 3 3 3 3 3 4 5 5 6 9 10 11 11 11 10 7 8 7 7 8 8 8 8 9 10 11 10 10 11 12 13 13 14 14 14 14 13 14 17 21 23 24 26 23 18 18 17 17 16 16 16 17 18 18 16 15 15 14 15 15 14 17 18 16 11 13 16 19 16 10 13 15 14 13 13 14 18 24 24 23 23 22
4 4 3 3 3 3 3 3 4 5 5 7 9 11 11 11 11 10 6 6 6 7 7 8 9 9 10 10 11 12 13 13 12 14 15 16 15 14 13 14 14 15 16 17 18 17 17 16 17 18 19 18 18 19 19 17 19 18 17 16 15 15 16 17 15 14 13 11 14 13 18 16 8 13 15 14 13 13 13 16 22 24 25 25 25
3 3 2 3 3 4 3 4 4 6 5 7 10 11 11 11 11 6 5 6 6 7 7 8 9 9 10 10 11 13 14 14 17 21 20 17 15 14 16 15 15 15 15 18 22 22 20 19 18 18 17 18 22 20 18 16 14 13 14 14 13 13 14 15 15 12 12 10 12 14 15 16 9 13 15 13 13 14 13 14 19 22 23 24 25
4 4 3 3 3 3 4 4 5 6 6 7 10 11 11 11 8 5 6 6 6 7 8 8 9 9 10 11 12 13 15 15 19 22 22 22 16 14 14 14 13 12 13 13 21 25 26 29 31 31 31 30 29 28 28 30 23 18 13 15 15 13 15 15 15 12 12 11 11 13 14 17 11 12 15 13 12 13 14 14 14 18 22 23 25
4 4 3 3 4 4 5 5 5 5 6 8 11 12 11 10 8 6 5 6 7 7 8 9 8 10 12 18 18 15 16 16 20 22 24 21 14 15 16 17 15 16 15 16 14 17 24 27 28 28 27 27 27 27 26 26 26 20 13 16 14 14 16 14 16 13 13 12 12 12 14 15 13 12 14 14 14 11 12 12 13 15 21 21 25
3 3 3 3 3 4 4 5 7 7 7 8 11 11 11 10 8 5 5 6 7 7 8 9 10 10 11 13 18 17 16 18 24 24 25 22 16 16 17 17 17 14 13 13 13 14 14 14 15 16 17 19 17 15 16 24 25 23 18 17 15 14 15 14 14 15 15 12 11 10 13 12 10 11 12 15 14 10 8 11 11 11 11 11 13
Wind_Direction
242 240 167 192 173 213 227 233 229 219 180 195 285 288 267 229 209 201 217 239 166 168 146 137 287 9 333 339 317 329 337 330 338 331 322 319 322 81 19 14 358 356 352 344 337 334 335 334 341 318 275 294 298 285 227 262 283 305 289 328 302 144 142 155 147 156 121 312 301 342 341 348 349 344 344 327 305 335 329 325 332 342 339 17 19
244 221 181 145 120 278 266 286 269 256 157 145 95 323 308 296 283 224 217 250 282 32 300 306 302 335 335 332 325 332 336 331 333 329 329 315 313 327 138 358 4 356 356 351 342 341 337 337 334 339 326 283 272 291 271 224 256 292 292 229 227 179 172 173 189 187 201 236 249 271 258 313 331 333 328 331 329 326 325 320 321 330 327 313 353
31 42 36 39 37 12 23 23 35 32 5 6 28 4 350 317 304 305 299 307 307 28 303 313 324 340 358 327 339 322 327 326 319 319 313 315 319 323 306 163 357 342 343 347 347 340 337 338 337 340 338 330 312 291 289 297 284 274 286 299 226 209 192 201 202 203 203 207 238 248 262 248 289 319 322 316 323 328 323 321 318 323 321 323 311
40 42 44 40 43 48 43 40 37 39 36 32 34 33 16 12 12 2 3 345 343 10 0 325 343 356 345 328 325 323 325 329 319 321 317 321 316 321 324 329 194 260 317 330 338 340 336 338 340 336 334 334 326 311 305 299 296 294 282 276 277 193 224 205 205 211 214 214 212 230 250 282 275 282 308 306 313 315 310 306 302 304 317 306 304
54 53 50 58 57 57 58 56 46 45 44 52 56 41 40 31 28 11 17 336 342 360 12 312 331 349 333 340 323 318 327 320 323 324 332 324 323 324 319 318 317 233 202 292 314 325 330 331 332 332 333 330 333 333 330 317 305 311 307 297 303 298 262 247 225 200 220 226 210 220 236 270 285 293 303 314 310 312 309 301 297 309 323 318 306
65 68 66 64 58 52 47 55 57 63 57 64 69 65 62 52 20 20 29 4 359 9 346 340 341 333 328 335 310 314 314 304 311 319 314 316 318 315 313 316 316 317 319 245 231 299 315 324 319 319 323 330 325 327 327 327 322 313 314 314 311 310 314 313 267 191 222 218 218 228 240 264 282 294 301 308 308 308 315 314 312 302 294 298 299
67 75 72 68 63 55 48 47 50 64 62 57 78 77 78 69 62 54 41 39 23 31 4 349 336 329 325 318 308 309 296 292 288 280 274 287 290 294 307 306 312 315 311 318 223 190 335 331 325 319 318 318 315 313 310 308 316 317 306 302 303 306 313 314 158 199 239 232 198 209 240 235 268 293 296 298 303 300 297 296 289 289 288 288 298
62 67 68 64 65 59 55 59 56 60 67 62 62 64 69 73 55 40 54 57 22 38 12 350 331 318 321 315 310 306 305 298 296 294 300 296 292 301 303 308 309 320 324 306 317 336 82 329 329 328 331 323 314 310 304 301 301 306 312 310 308 308 304 287 193 239 190 180 191 205 227 270 295 292 295 295 295 296 293 290 287 286 291 290 290
49 53 64 62 64 64 59 55 49 47 57 59 57 48 57 65 58 38 44 62 46 46 53 12 339 317 306 293 286 292 291 301 301 307 304 298 315 315 309 303 305 299 301 321 317 315 346 67 314 312 302 302 307 306 303 300 299 299 299 300 304 308 307 315 301 212 190 190 192 212 254 97 298 285 286 289 291 295 293 288 291 291 280 286 289
48 52 60 59 61 59 53 46 49 56 57 54 50 39 34 34 57 50 52 68 55 34 12 340 294 286 293 286 286 277 277 273 288 301 310 331 331 329 322 319 317 320 310 301 301 300 310 299 254 255 251 263 293 300 300 300 300 300 299 297 297 298 300 306 312 295 233 228 232 237 234 235 230 256 273 282 285 284 287 292 286 279 284 289 287
45 51 55 54 57 58 58 52 54 55 58 56 47 35 39 42 48 61 53 52 55 37 345 307 293 270 279 291 281 280 288 291 301 326 342 347 338 323 310 325 329 321 316 311 312 316 314 311 314 316 292 233 286 291 294 293 296 296 296 297 297 294 296 297 303 306 313 291 233 229 237 249 250 250 265 274 280 275 281 283 278 283 286 282 284
40 47 51 50 53 51 50 43 42 45 50 50 46 39 32 41 47 49 66 70 43 19 358 330 293 282 303 298 279 292 286 302 329 40 28 355 341 339 344 343 334 341 328 323 326 320 311 309 306 298 302 290 262 278 287 291 292 292 292 294 293 295 294 297 296 299 302 308 299 261 231 230 243 257 254 255 253 255 277 282 279 273 270 272 278
39 44 49 56 57 52 50 48 47 47 48 47 41 36 30 26 41 50 42 47 38 18 7 325 341 342 338 304 291 222 224 175 91 62 355 339 351 354 0 348 356 355 353 338 320 311 313 312 310 309 309 309 297 260 254 268 277 283 290 292 295 293 294 295 296 298 296 301 306 304 275 254 253 266 261 247 236 251 269 265 265 268 257 252 250
38 39 43 44 48 48 45 43 45 51 53 49 42 37 32 29 17 52 50 41 43 20 14 351 20 354 333 336 279 325 156 98 81 2 340 340 0 31 358 348 5 357 347 335 323 319 324 325 322 318 311 310 308 310 306 286 271 284 296 297 297 294 294 292 295 295 297 294 294 295 301 307 280 254 253 241 255 249 250 257 254 246 249 252 249
43 42 43 42 47 49 46 43 43 44 50 47 42 40 33 31 27 19 36 50 50 35 28 24 9 336 307 314 348 342 132 142 15 342 325 4 15 347 351 359 13 357 342 334 344 345 339 327 318 312 309 308 309 308 301 296 285 292 287 290 289 291 290 291 290 290 289 291 290 290 292 292 295 274 251 248 245 258 262 238 241 242 240 244 250
44 46 50 48 48 51 51 49 47 46 50 51 44 40 34 31 29 26 19 45 36 40 33 31 23 0 16 346 316 323 328 353 341 321 321 16 340 346 16 2 348 347 341 345 344 331 321 319 311 307 308 304 303 301 297 295 302 284 268 270 274 277 284 288 288 289 288 287 285 286 286 286 288 288 280 259 260 263 271 243 236 242 237 240 247
43 43 45 47 46 45 49 50 50 46 49 51 48 40 35 33 28 33 28 29 41 38 40 34 34 26 11 355 352 343 359 324 328 318 96 329 330 0 335 334 339 348 341 328 324 320 320 318 317 312 302 301 297 296 293 296 293 301 289 258 255 266 277 283 286 286 286 285 283 281 279 281 281 283 284 284 284 286 289 259 243 250 248 247 251
43 43 42 43 44 42 42 45 45 43 44 50 49 45 36 33 26 28 31 23 31 37 36 38 43 33 33 38 18 344 329 322 319 317 325 309 357 326 319 331 338 335 326 322 323 323 324 322 319 315 310 303 298 294 295 294 291 293 295 306 294 285 277 279 281 285 287 287 287 282 280 277 277 278 277 279 280 283 280 286 275 247 241 249 255
43 43 42 41 44 42 43 45 45 45 41 44 43 40 37 30 24 31 28 23 25 43 33 16 32 37 25 29 27 1 330 328 340 321 323 334 318 325 322 333 332 325 320 322 327 325 326 322 318 315 312 308 305 302 302 299 294 276 275 277 284 287 286 284 283 284 286 289 289 288 285 281 278 275 273 272 273 273 275 274 269 249 244 253 258
43 41 41 39 40 43 41 44 47 43 43 45 42 34 35 34 30 29 31 33 29 34 32 25 23 16 8 12 8 359 344 339 339 334 313 310 314 313 310 323 319 317 315 334 327 323 322 322 318 314 309 310 307 306 302 302 298 297 295 285 289 294 297 295 292 288 287 288 288 288 287 287 283 279 276 274 271 269 271 270 266 255 253 253 253
44 44 41 41 40 42 42 45 45 43 42 44 41 36 34 31 28 30 29 32 34 24 27 27 20 14 359 5 360 359 343 351 338 341 326 314 307 320 316 311 292 290 315 319 315 330 322 313 312 306 303 305 305 307 305 306 306 305 303 305 308 311 311 310 306 299 295 291 290 288 287 286 284 283 281 277 273 272 268 265 265 260 251 248 248
46 42 42 41 40 40 42 44 46 44 45 43 39 38 33 33 32 32 26 32 30 31 31 16 14 13 5 352 0 355 348 348 348 341 323 301 304 314 318 322 319 310 314 298 316 323 313 304 305 305 305 308 311 307 311 307 311 309 308 322 315 313 309 306 302 300 296 292 289 288 289 288 288 286 284 282 280 276 272 267 263 262 258 249 245
48 44 40 38 43 43 43 45 45 44 43 39 35 32 31 31 30 35 38 31 26 23 27 23 6 12 6 5 3 1 351 339 335 337 325 317 313 307 311 311 306 308 310 278 303 302 290 298 303 300 303 313 313 312 310 311 306 304 314 304 309 307 308 307 308 307 305 303 299 296 292 290 289 289 288 284 282 279 276 273 269 264 262 257 250
51 47 38 33 38 40 39 42 42 38 39 37 32 24 27 30 31 31 31 31 27 23 25 19 10 4 7 360 353 346 340 339 333 324 322 316 311 304 307 314 304 290 305 300 274 268 258 277 273 278 298 307 306 308 303 302 307 346 350 327 313 311 311 311 311 307 303 300 299 299 298 297 296 293 288 286 282 279 276 274 271 268 266 265 262
44 43 35 29 33 34 34 33 36 37 35 34 31 25 21 30 31 30 32 26 24 14 23 15 7 2 350 341 339 336 335 337 326 319 314 310 309 305 304 308 301 304 307 310 304 254 232 243 236 243 280 291 294 291 301 305 310 26 5 328 315 306 302 303 302 300 297 295 295 294 294 292 292 291 291 290 285 282 278 275 272 269 267 266 264
54 48 34 33 39 39 39 42 40 39 36 33 29 26 15 26 30 25 22 23 14 7 17 4 357 354 342 333 340 330 327 333 325 320 319 320 314 313 311 306 293 295 298 300 301 308 282 203 210 220 251 258 265 278 287 306 310 358 340 322 311 298 291 297 300 300 300 298 295 293 290 287 286 288 287 287 287 286 282 278 275 272 269 267 264
62 57 41 42 42 43 39 41 39 36 34 29 19 23 12 13 28 20 17 14 358 359 354 357 345 348 340 339 328 319 327 329 326 317 316 309 308 311 314 314 311 296 299 296 296 283 292 297 284 279 245 256 271 271 292 328 310 314 333 322 306 304 297 299 301 303 304 302 297 293 290 285 282 283 283 282 282 283 284 282 279 275 272 269 269
82 77 63 52 45 44 50 44 38 35 30 25 16 14 4 8 17 15 10 7 342 349 346 340 339 334 330 332 321 317 319 321 318 314 310 310 304 301 302 299 304 309 310 303 295 284 287 293 302 285 285 278 277 277 291 295 301 317 308 299 298 298 300 303 303 304 305 303 300 296 292 288 285 282 281 281 280 279 278 279 279 279 279 280 284
83 70 55 50 38 27 32 32 28 25 19 18 10 2 347 356 7 0 3 350 333 336 342 339 335 323 327 322 313 310 310 313 307 305 308 300 296 295 290 290 296 293 303 304 297 302 299 300 296 291 284 286 298 313 307 302 299 305 300 292 289 288 291 296 300 303 302 301 300 299 295 292 289 285 282 280 279 279 279 277 275 273 272 270 270
82 65 58 47 44 34 33 32 26 18 15 8 360 351 338 348 346 344 3 339 329 329 328 331 326 324 317 316 311 308 309 308 303 300 293 295 290 286 286 285 281 279 287 293 294 289 294 292 280 292 300 302 307 303 297 289 291 303 297 292 289 285 289 292 294 295 296 297 297 296 294 292 289 286 282 280 278 277 277 278 277 275 273 272 271
70 64 53 47 44 33 41 22 21 10 6 1 349 345 339 352 349 353 3 349 340 336 340 342 328 328 323 319 319 312 316 311 306 301 297 291 291 290 287 283 275 271 274 281 287 284 284 298 293 289 298 297 294 293 296 295 295 293 292 291 286 288 290 283 278 282 286 291 294 291 289 288 287 285 284 281 279 278 277 277 278 279 277 273 271
73 63 58 49 40 36 27 28 8 7 7 3 357 354 350 5 355 356 353 348 343 337 341 342 334 327 324 325 323 324 322 317 310 308 303 297 294 290 287 282 280 276 275 276 272 282 292 292 290 293 292 296 299 297 293 292 291 280 284 284 291 297 290 292 282 279 283 285 286 289 290 288 285 285 284 282 280 278 277 276 275 276 278 277 273
74 74 68 52 38 30 24 18 13 5 6 2 1 356 356 357 351 347 342 341 338 335 334 330 333 326 324 319 318 322 321 316 314 311 306 301 297 291 287 285 282 281 282 279 281 288 291 289 291 296 302 301 295 297 297 298 299 302 298 292 290 289 290 286 287 279 274 276 280 285 288 287 285 282 281 280 279 277 276 274 274 273 274 275 275
103 83 71 59 31 20 20 12 7 6 358 356 356 351 350 343 339 340 330 332 329 329 328 324 334 328 322 319 321 324 325 317 312 308 307 308 303 299 295 294 290 290 287 286 285 286 292 301 298 298 301 302 294 301 305 308 306 304 300 296 289 285 281 285 287 285 280 278 276 278 282 285 285 283 282 280 279 278 277 277 275 273 272 272 273
114 74 39 40 23 18 14 6 356 353 350 347 345 342 336 334 325 327 326 325 326 328 329 328 331 328 323 324 321 325 323 316 312 310 308 304 306 303 301 299 295 293 292 288 287 287 290 293 300 303 305 309 305 308 308 304 302 304 301 298 295 291 283 279 279 283 278 273 273 271 277 281 284 283 282 281 280 279 277 276 274 272 270 270 270
94 70 54 24 20 7 358 353 346 341 343 340 331 331 327 326 324 322 324 323 322 321 322 322 325 324 321 320 320 324 319 315 314 312 309 310 308 304 301 301 298 297 296 292 288 287 292 294 297 301 306 308 308 305 305 303 302 303 302 301 300 296 293 286 279 276 281 281 277 275 275 277 278 279 280 280 279 278 277 274 273 272 270 268 266
72 67 45 36 6 358 352 344 331 335 337 330 328 323 325 321 318 318 317 321 318 316 316 317 318 316 316 314 316 319 318 313 312 313 313 311 307 306 302 304 300 300 298 296 293 291 291 290 295 299 304 304 306 306 308 308 304 300 303 301 302 301 297 292 286 281 278 276 278 275 271 269 269 272 274 277 277 276 275 275 273 272 270 268 267
91 85 45 11 15 346 339 326 315 320 323 321 317 315 316 320 314 315 314 314 317 316 315 312 312 312 309 310 312 311 311 311 309 310 309 310 309 302 304 301 301 298 297 295 292 291 290 289 294 300 304 309 312 308 312 313 310 308 306 304 300 299 299 299 297 297 296 294 292 294 290 277 270 267 270 273 275 275 274 273 273 271 268 266 264
112 116 56 37 325 337 313 315 308 315 309 307 305 313 315 316 317 317 318 312 309 308 302 306 304 302 302 302 302 303 303 304 302 306 309 308 305 303 304 304 302 301 300 299 300 299 297 295 295 296 303 307 311 312 315 315 310 307 308 311 308 311 315 314 310 307 304 299 292 284 281 282 279 275 274 272 272 271 272 272 271 269 267 264 264
133 126 166 315 275 300 299 295 298 300 299 298 308 312 315 317 315 315 310 307 306 301 299 300 296 295 296 295 294 295 295 299 305 304 305 304 305 303 303 303 304 304 303 304 304 300 298 298 297 302 303 304 308 305 309 313 310 309 313 316 311 312 308 302 299 303 303 300 300 296 287 283 283 276 267 260 257 259 262 265 265 265 264 263 264
127 143 240 239 274 271 275 280 285 292 286 293 318 327 323 315 311 305 302 300 300 302 300 299 295 295 293 292 291 293 297 297 295 293 294 296 299 298 300 302 304 303 302 302 302 300 298 298 298 300 301 303 306 312 314 312 309 309 313 311 298 298 302 303 301 299 301 303 300 299 296 295 288 283 285 283 277 269 263 254 260 258 258 261 261
139 142 212 252 258 271 282 282 285 276 277 274 291 296 300 302 304 300 300 296 296 296 298 299 298 296 296 294 296 297 295 293 292 293 295 295 291 289 293 298 299 299 298 299 298 298 297 296 296 301 300 300 304 305 303 303 302 303 303 301 299 303 306 302 296 299 308 304 301 299 300 301 297 293 287 283 281 273 268 261 258 260 255 256 260
167 176 218 226 239 258 261 279 281 275 266 264 286 299 302 301 300 296 293 293 290 291 290 294 297 304 303 302 299 297 294 290 291 292 301 297 294 293 291 291 290 292 297 295 292 294 293 290 293 293 294 296 298 300 299 300 299 299 299 302 301 303 305 305 303 308 316 315 314 311 300 301 304 299 296 289 287 283 280 272 271 264 256 257 263
180 178 219 222 248 244 254 264 270 268 275 275 293 301 301 299 299 297 291 289 287 286 290 292 297 304 303 303 300 297 294 297 302 304 300 297 297 294 293 292 290 287 282 281 287 289 287 289 289 288 291 292 294 297 298 298 299 297 295 294 293 293 295 297 296 299 314 321 307 300 292 289 285 283 283 284 286 287 281 280 278 273 263 262 262
177 195 204 221 232 238 250 260 272 273 271 281 293 299 299 299 299 297 289 284 284 284 289 292 294 297 301 302 301 297 296 295 299 299 295 298 302 296 292 289 287 284 282 279 278 278 283 283 284 284 283 287 287 286 285 289 291 291 289 283 282 282 285 287 290 296 303 312 302 295 290 287 290 285 278 275 275 279 284 282 276 269 264 259 258
189 197 205 220 230 240 250 264 272 273 275 279 292 296 298 297 296 296 288 287 284 285 285 287 289 291 293 299 303 301 297 302 302 302 306 302 297 296 290 281 278 279 281 279 279 277 276 276 277 276 275 274 277 280 281 282 282 281 282 279 278 280 276 275 289 292 295 295 286 290 286 285 292 287 282 283 282 279 277 277 278 277 273 265 261
184 196 200 210 226 243 251 257 271 276 269 275 289 295 294 295 296 300 292 286 284 281 281 281 285 287 289 289 290 293 298 297 295 294 294 295 293 285 279 272 264 263 269 274 277 278 278 273 272 272 273 271 272 273 274 273 272 273 271 272 273 276 281 282 281 285 287 282 278 278 279 290 301 288 283 285 286 283 280 279 277 276 275 273 270
185 190 208 210 230 239 250 254 262 269 268 275 289 290 292 295 301 300 287 282 280 279 284 279 281 284 288 288 289 290 291 292 291 293 293 294 292 283 276 267 263 261 259 258 258 262 265 266 265 265 264 263 262 265 265 261 261 258 264 272 274 279 284 289 288 292 284 283 275 277 280 285 297 291 288 286 284 280 277 275 275 275 275 274 272
185 193 199 211 224 238 245 246 254 267 274 277 283 289 294 297 302 290 285 278 277 278 279 280 281 280 283 282 284 288 290 289 292 295 296 294 286 278 275 272 262 253 255 257 262 262 265 265 268 272 274 276 281 281 280 280 283 285 287 287 285 293 289 288 287 287 282 282 276 274 279 285 298 293 290 289 286 283 281 278 278 276 274 275 276
190 190 203 214 226 230 238 245 248 263 272 277 284 292 294 293 293 289 282 277 278 279 282 277 278 279 273 274 271 277 281 284 289 293 296 300 296 292 290 284 278 273 268 270 274 271 270 273 274 276 278 283 286 287 285 284 284 285 280 280 286 286 281 279 283 283 283 279 277 278 278 275 290 287 290 294 294 282 281 282 281 277 275 272 270
186 191 204 221 229 246 238 246 258 261 267 274 283 289 290 288 289 280 277 280 279 280 284 282 275 270 276 274 269 267 279 292 298 303 304 302 297 290 288 287 286 283 278 276 273 281 284 281 277 276 273 270 273 274 274 276 275 275 274 274 277 274 275 275 277 284 283 273 275 274 274 282 291 295 308 304 297 288 267 275 285 293 291 283 279